Voltar ao catálogo

STARLINK-31218

AtivoComunicaçõesVLEO
NORAD 58895·PAYLOAD·🇺🇸 United States

Lançado Jan 29, 2024 de Vandenberg Space Force Base

Loading…

Próximas Passagens (próximas 24 horas)

TLE

AtualizadoSource: CelesTrak SupGP

Época: Sep 14, 2026, 14:32 UTC

1 58895C 24020V   26257.60604167  .00066757  00000+0  21475-2 0  2573
2 58895  53.1583 163.5696 0001330  87.0519 290.5231 15.31657631    16

Acompanhe STARLINK-31218 em tempo real com AllMySat

Download on the App Store